Location: Marsån
(66.4167°N, 22.2833°E)
Time: 11:52:01
(UTC+00:00)

SL-24 DEB - Pass Details

Date: 24 February 2024
Orbit: 654 x 682 km, 92.0° (Epoch: 15 April)

Event Time Altitude Azimuth Distance (km) Brightness Sun altitude
Exits shadow 17:20:21 - 150° (SSE) 2,928 7.2 -12.3°
Reaches altitude 10° 17:22:29 10° 145° (SE) 2,084 6.4 -12.5°
Maximum altitude 17:26:52 48° 72° (ENE) 874 4.4 -12.9°
Drops below altitude 10° 17:31:15 10° 359° (N) 2,085 6.9 -13.4°
Sets 17:33:33 0° 354° (N) 3,000 7.8 -13.6°
